Regional Weather Roundup
Issued by NWS

Home | Current Version | Previous Version | Graphics & Text | Print | Product List | Glossary On
Versions: 1 2 3 4 5 6 7 8 9 10 11 12 13 14 15 16 17 18 19 20 21 22 23 24 25 26 27 28 29 30 31 32 33 34 35 36 37 38 39 40 41 42 43 44 45 46 47 48 49 50
000
ASUS43 KMKX 270200
RWRWI

WISCONSIN REGIONAL WEATHER ROUNDUP
NATIONAL WEATHER SERVICE MILWAUKEE/SULLIVAN WI
900 PM CDT TUE JUL 26 2016

NOTE: "FAIR" INDICATES FEW OR NO CLOUDS BELOW 12,000 FEET WITH NO
SIGNIFICANT WEATHER AND/OR OBSTRUCTIONS TO VISIBILITY.

WIZ001-002-006>008-014>016-023>028-270300-
NORTHWEST WISCONSIN

CITY           SKY/WX    TMP DP  RH WIND       PRES   REMARKS
SUPERIOR ARPT  CLOUDY    76  70  82 NW5       29.94S
ASHLAND        MOCLDY    75  69  81 CALM      29.95R
HAYWARD        CLOUDY    75  69  81 CALM      29.97S
SIREN          NOT AVBL
CUMBERLAND     CLOUDY    75  66  73 W6        29.97S
RICE LAKE      CLOUDY    77  67  73 S3        29.98S
CHETEK         CLOUDY    78  68  72 MISG      29.96S HX  80
LADYSMITH      CLOUDY    78  66  67 CALM      29.99R HX  80
EAU CLAIRE     NOT AVBL
MENOMONIE      PTCLDY    80  66  62 SW3       29.97S HX  82
NEW RICHMOND   MOCLDY    77  66  67 SW3       29.97S
OSCEOLA        PTCLDY    78  69  73 CALM      29.99S HX  80
$$

WIZ003>005-009-010-017-018-270300-
NORTH CENTRAL WISCONSIN

CITY           SKY/WX    TMP DP  RH WIND       PRES   REMARKS
MANITOWISH WTR CLOUDY    68  68 100 CALM      29.98F
ARBOR VITAE    CLOUDY    72  63  72 NE3       30.01R
WOODRUFF       CLOUDY    72  63  72 NE3       30.01R
RHINELANDER    CLEAR     74  65  73 W3        30.00R
EAGLE RIVER    HVY RAIN  67  63  88 N3        30.01R
LAND O LAKES   RAIN      65  64  96 CALM      30.00F
PHILLIPS       CLOUDY    75  68  78 CALM      29.99R
TOMAHAWK       CLEAR     75  63  67 CALM      29.99R
MEDFORD        CLEAR     75  67  75 SW5       29.99S
MERRILL        CLEAR     77  67  70 SW5       29.98S
$$

WIZ029-030-035-036-043>047-270300-
CENTRAL WISCONSIN

CITY           SKY/WX    TMP DP  RH WIND       PRES   REMARKS
WAUSAU         CLEAR     78  66  66 SW7       29.97R HX  80
MOSINEE        CLEAR     73  66  78 SW6       30.00S
MARSHFIELD     CLEAR     75  66  73 SW6       30.00R
STEVENS POINT  CLEAR     79  65  64 SW5       29.99S HX  80
WAUPACA        CLEAR     80  67  65 SW3       29.98R HX  82
WAUTOMA        CLEAR     77  68  73 S3        29.99S
WISC RAPIDS    CLEAR     77  66  68 SW3       30.00R
CAMP DOUGLAS   NOT AVBL
$$

WIZ011>013-019>022-031-037>040-048>050-270300-
NORTHEAST WISCONSIN

CITY           SKY/WX    TMP DP  RH WIND       PRES   REMARKS
ANTIGO         CLEAR     75  66  73 CALM      29.99S
SHAWANO        CLEAR     81  66  60 CALM      29.96S HX  83
OCONTO         CLEAR     77  72  84 CALM      29.93S
STURGEON BAY   CLEAR     78  68  71 S7        29.96R HX  80
GREEN BAY      CLEAR     76  70  82 S5        29.97R
MANITOWOC      NOT AVBL
APPLETON       PTCLDY    75  64  69 SW6       29.97S
CLINTONVILLE   CLEAR     77  66  69 SW3       29.97R
OSHKOSH        CLEAR     78  67  68 VRB5      29.99R HX  80
$$

WIZ032>034-041-042-053>061-270300-
SOUTHWEST WISCONSIN

CITY           SKY/WX    TMP DP  RH WIND       PRES   REMARKS
LA CROSSE      CLEAR     80  69  69 SW7       29.97S HX  83
SPARTA         CLEAR     77  68  72 S3        29.99S
VIROQUA        CLEAR     76  68  76 S5        30.02F
BOSCOBEL       CLEAR     74  70  87 CALM      30.00F
PRAIRIE DU CHI CLEAR     78  67  70 CALM      29.99F HX  80
PLATTEVILLE    CLEAR     78  68  73 CALM      30.03F
$$

WIZ056-057-062-063-064-067-068-270300-
SOUTH CENTRAL WISCONSIN

CITY           SKY/WX    TMP DP  RH WIND       PRES   REMARKS
REEDSBURG      CLEAR     77  69  74 CALM      30.00S
BARABOO/DELLS  PTCLDY    76  66  71 CALM      30.01R
LONE ROCK      NOT AVBL
MINERAL POINT  CLEAR     79  64  61 SW3       30.03F HX  81
MADISON        PTCLDY    77  65  66 SW3       29.99F
MIDDLETON      CLEAR     78  65  65 SW5       30.01F HX  80
WATERTOWN      CLEAR     76  69  79 S3        30.00F
MONROE         CLEAR     79  64  61 SW3       30.02F HX  81
JANESVILLE     CLEAR     77  68  73 CALM      30.01S
$$

WIZ051-052-058>065-066-070>072-270300-
SOUTHEAST WISCONSIN

CITY           SKY/WX    TMP DP  RH WIND       PRES   REMARKS
MILWAUKEE      PTCLDY    78  60  53 S6        29.99F
WAUKESHA       CLEAR     73  63  68 SW5       30.02S
MILWAUKEE/TIMM NOT AVBL
RACINE         CLEAR     75  65  70 S3        30.02S
BURLINGTON     CLEAR     74  66  76 CALM      30.01S
KENOSHA        CLEAR     76  64  66 S3        30.01F
FOND DU LAC    CLEAR     75  67  76 SW5       30.00R
SHEBOYGAN      LGT RAIN  73  63  70 S5        30.00R
WEST BEND      CLEAR     75  63  64 SW3       29.99F
JUNEAU         CLEAR     74  67  79 S5        30.01S
$$

LSZ147-162-270300-
LAKE SUPERIOR

STATION/POSITION TIME  TEMP    WIND        PRES    WAVE
                       AIR SEA DIR/SP/G            HT/PER
                 (UTC) (F)     (DEG/KT/KT) (MB)    (FT/S)
W MID LAKE BUOY  0050   69 65  270/  6/  6 1012.2R   0
DEVILS ISLAND    0100   70     230/ 10/ 12 1012.6F
PORT WING        0100   77     200/  4/  6 1013.5
SAXON HARBOR     0140   75     200/  1/  3 1013.5R
$$

LMZ867-665-643>646-270300-
LAKE MICHIGAN

STATION/POSITION TIME  TEMP    WIND        PRES    WAVE
                       AIR SEA DIR/SP/G            HT/PER
                 (UTC) (F)     (DEG/KT/KT) (MB)    (FT/S)
CHAMBERS ISLAND  0100   80     190/  6/ 12 1012.9S
S GREEN BAY BUOY 0100   79 75  210/ 10/ 12   N/A
N MID LAKE BUOY  0050   73 70  210/ 17/ 21 1012.1F   3/ 4
NORTHPORT PIER   0100   80     170/  3/  7 1012.9F
SISTER BAY       0121   82     220/ 14/ 17   N/A
ALGOMA LAKESHORE 0113          230/ 12/ 14   N/A
KEWAUNEE LAKESHO 0100   64                   N/A
SHEBOYGAN LAKESH 0100   76     190/ 13/ 13 1014.9F
PORT WASHINGTON  0140   69     200/  5/  9 1015.9F
ATWATER BUOY     0100   68 62  180/  8/  8 1017.4F
MILWAUKEE LAKESH 0110   75     170/  8/  9   N/A
S MID LAKE BUOY  0050   76 77  170/  2/  2 1015.6R   0
KENOSHA   LAKESH 0100   76     180/  6/  7 1015.6F
$$

TC  - TEMPERATURE IN CELSIUS
VSB - VISIBILITY IN STATUTE MILES
WCI - WIND CHILL INDEX
HX  - HEAT INDEX





USA.gov is the U.S. government's official web portal to all federal, state and local government web resources and services.